STARLINK-2207

decayed
NORAD ID: 47421 Int'l Des: 2021-006 Owner: SPXS Country: US Constellation: starlink
LEOCIRCULARRETROGRADE
グループ

STARLINK-2207について

説明を読み込み中...

高度履歴

Altitude vs Time

uPlot chart will show altitude changes over time

軌道要素

1 47421U 21006J 21364.43408005 .22518342 28646-5 12835-2 0 9996
2 47421 97.4961 68.5025 0006746 217.2567 143.6211 16.41846574 52095
Epoch: Dec 30, 2021 • Age: 32599 hours

現在のステータス

Position data unavailable
打ち上げ日 Jan 24, 2021
運用期間 4.6 years
落下予定日 Dec 30, 2021
タイプ internet

技術仕様

分類 Payload
質量 260.00 kg
乾燥質量 248.00 kg
総質量 260.00 kg
長さ 0.20 m
直径 2.80 m
スパン 9.00 m
形状 Box + pan
製造者 SPXS
バスタイプ Starlink
フェーズステータス Reentered
所有者/国 SPXS/US

大規模コンステレーション

Loading constellations...